Location: Bocchiglicro
(39.4167°N, 16.7500°E)
Time: 18:06:49
(UTC+00:00)

CZ-2C R/B - Pass Details

Date: 07 June 2020
Orbit: 668 x 784 km, 98.2° (Epoch: 03 July)

Event Time Altitude Azimuth Distance (km) Brightness Sun altitude
Rises 02:27:34 0° 20° (NNE) 3,279 6.9 -10.0°
Reaches altitude 10° 02:30:01 10° 27° (NNE) 2,348 6.2 -9.6°
Maximum altitude 02:34:57 43° 98° (E) 1,090 3.7 -8.9°
Drops below altitude 10° 02:39:48 10° 170° (S) 2,311 4.7 -8.2°
Sets 02:42:12 0° 176° (S) 3,221 5.4 -7.8°
